This demonstration page uses our WeatherBlox Daily Observations layout. Learn more.

Left ArrowRight Arrow

Hourly Observations for October 25, 2016

Temp ( °F °C ) Dew Point ( °F °C ) Humidity (%) Winds ( mph kmh ) Pressure ( in mb ) Visibility ( mi km ) Precip ( " mm )
12:17 am 00:17 Clear 41 5 39 4 93 93 N 3 6 30.42 1030 10 16.0934 N/A
12:37 am 00:37 Clear 41 5 37 3 87 87 N 3 6 30.42 1030 10 16.0934 N/A
12:56 am 00:56 Clear 39 4 36 2 87 87 N N/A 30.42 1030 10 16.0934 N/A
1:17 am 01:17 Clear 39 4 37 3 93 93 N 5 7 30.42 1030 10 16.0934 N/A
1:37 am 01:37 Clear 39 4 37 3 93 93 N 5 7 30.42 1030 10 16.0934 N/A
1:56 am 01:56 Clear 37 3 37 3 100 100 NNE 3 6 30.42 1030 10 16.0934 N/A
2:17 am 02:17 Clear 37 3 37 3 100 100 N N/A 30.42 1030 10 16.0934 N/A
2:37 am 02:37 Clear 37 3 36 2 93 93 N N/A 30.42 1030 10 16.0934 N/A
2:56 am 02:56 Clear 37 3 36 2 93 93 N N/A 30.42 1030 10 16.0934 N/A
3:17 am 03:17 Clear 37 3 37 3 100 100 N 3 6 30.42 1030 10 16.0934 N/A
3:37 am 03:37 Clear 37 3 36 2 93 93 N 3 6 30.42 1030 10 16.0934 N/A
3:56 am 03:56 Clear 36 2 36 2 100 100 N 5 7 30.42 1030 10 16.0934 N/A
4:17 am 04:17 Clear 37 3 36 2 93 93 N 3 6 30.42 1030 10 16.0934 N/A
4:37 am 04:37 Clear 36 2 34 1 93 93 N N/A 30.42 1030 10 16.0934 N/A
4:56 am 04:56 Clear 36 2 36 2 100 100 NNE 3 6 30.42 1030 10 16.0934 N/A
5:17 am 05:17 Clear 36 2 36 2 100 100 N 3 6 30.42 1030 10 16.0934 N/A
5:37 am 05:37 Clear 36 2 34 1 93 93 N N/A 30.42 1030 10 16.0934 N/A
5:56 am 05:56 Clear 36 2 34 1 93 93 N N/A 30.42 1030 10 16.0934 N/A
6:17 am 06:17 Clear 36 2 36 2 100 100 N N/A 30.42 1030 10 16.0934 N/A
6:37 am 06:37 Clear 36 2 36 2 100 100 N 3 6 30.42 1030 10 16.0934 N/A
6:56 am 06:56 Clear 36 2 36 2 100 100 NNE 5 7 30.42 1030 10 16.0934 N/A
7:17 am 07:17 Clear 36 2 36 2 100 100 NE 3 6 30.42 1030 10 16.0934 N/A
7:36 am 07:36 Clear 37 3 36 2 93 93 N N/A 30.45 1031 10 16.0934 N/A
7:56 am 07:56 Clear 36 2 36 2 100 100 ENE 3 6 30.42 1030 10 16.0934 N/A
8:17 am 08:17 Sunny 36 2 36 2 100 100 N N/A 30.42 1030 10 16.0934 N/A
8:36 am 08:36 Sunny 37 3 36 2 93 93 ENE 3 6 30.45 1031 10 16.0934 N/A
8:56 am 08:56 Sunny 39 4 37 3 93 93 ENE 5 7 30.45 1031 10 16.0934 N/A
9:17 am 09:17 Sunny 41 5 37 3 87 87 E 3 6 30.45 1031 10 16.0934 N/A
9:36 am 09:36 Sunny 41 5 37 3 87 87 ENE 6 9 30.45 1031 10 16.0934 N/A
9:56 am 09:56 Sunny 43 6 39 4 87 87 ENE 5 7 30.45 1031 10 16.0934 N/A
10:17 am 10:17 Sunny 45 7 39 4 81 81 ENE 5 7 30.45 1031 10 16.0934 N/A
10:36 am 10:36 Sunny 45 7 39 4 81 81 ENE 5 7 30.45 1031 10 16.0934 N/A
10:56 am 10:56 Sunny 46 8 39 4 76 76 E 6 9 30.45 1031 10 16.0934 N/A
11:17 am 11:17 Sunny 48 9 39 4 71 71 E 6 9 30.45 1031 10 16.0934 N/A
11:36 am 11:36 Sunny 50 10 41 5 71 71 E 7 11 30.42 1030 10 16.0934 N/A
11:56 am 11:56 Sunny 50 10 39 4 67 67 ESE 8 13 30.42 1030 10 16.0934 N/A
12:17 pm 12:17 Sunny 52 11 41 5 67 67 E 9 15 30.42 1030 10 16.0934 N/A
12:36 pm 12:36 Sunny 52 11 41 5 67 67 ENE 8 13 30.42 1030 10 16.0934 N/A
12:57 pm 12:57 Partly Cloudy 52 11 41 5 67 67 E 6 9 30.42 1030 10 16.0934 N/A
1:17 pm 13:17 Sunny 54 12 41 5 63 63 ESE 8 13 30.42 1030 10 16.0934 N/A
1:36 pm 13:36 Sunny 54 12 39 4 58 58 ESE 7 11 30.39 1029 10 16.0934 N/A
1:57 pm 13:57 Sunny 54 12 39 4 58 58 SE 6 9 30.39 1029 10 16.0934 N/A
2:17 pm 14:17 Sunny 54 12 41 5 63 63 E 6 9 30.39 1029 10 16.0934 N/A
2:36 pm 14:36 Sunny 55 13 39 4 55 55 SE 3 6 30.39 1029 10 16.0934 N/A
2:57 pm 14:57 Sunny 55 13 39 4 55 55 E 5 7 30.39 1029 10 16.0934 N/A
3:17 pm 15:17 Sunny 55 13 39 4 55 55 N N/A 30.39 1029 10 16.0934 N/A
3:36 pm 15:36 Sunny 57 14 37 3 48 48 N N/A 30.36 1028 10 16.0934 N/A
3:57 pm 15:57 Sunny 57 14 39 4 51 51 E 8 13 30.36 1028 10 16.0934 N/A
4:17 pm 16:17 Sunny 55 13 39 4 55 55 ENE 3 6 30.36 1028 10 16.0934 N/A
4:36 pm 16:36 Sunny 55 13 39 4 55 55 ENE 6 9 30.36 1028 10 16.0934 N/A
4:57 pm 16:57 Partly Cloudy 55 13 41 5 59 59 E 5 7 30.36 1028 10 16.0934 N/A
5:17 pm 17:17 Mostly Cloudy 55 13 41 5 59 59 ENE 9 15 30.33 1027 10 16.0934 N/A
5:36 pm 17:36 Partly Cloudy 55 13 39 4 55 55 NE 10 17 30.33 1027 10 16.0934 N/A
5:57 pm 17:57 Partly Cloudy 54 12 39 4 58 58 ENE 8 13 30.33 1027 10 16.0934 N/A
6:17 pm 18:17 Mostly Cloudy 52 11 39 4 62 62 ENE 9 15 30.33 1027 10 16.0934 N/A
6:36 pm 18:36 Cloudy 52 11 41 5 67 67 NE 8 13 30.33 1027 10 16.0934 N/A
6:57 pm 18:57 Cloudy 50 10 41 5 71 71 NE 8 13 30.33 1027 10 16.0934 N/A
7:17 pm 19:17 Cloudy 50 10 39 4 67 67 ENE 8 13 30.36 1028 10 16.0934 N/A
7:37 pm 19:37 Partly Cloudy 48 9 39 4 71 71 E 7 11 30.33 1027 10 16.0934 N/A
7:57 pm 19:57 Partly Cloudy 46 8 39 4 76 76 E 6 9 30.36 1028 10 16.0934 N/A
8:16 pm 20:16 Mostly Cloudy 48 9 39 4 71 71 E 5 7 30.36 1028 10 16.0934 N/A
8:37 pm 20:37 Mostly Cloudy 48 9 39 4 71 71 E 7 11 30.36 1028 10 16.0934 N/A
8:57 pm 20:57 Partly Cloudy 46 8 39 4 76 76 ENE 6 9 30.36 1028 10 16.0934 N/A
9:16 pm 21:16 Mostly Cloudy 46 8 39 4 76 76 ENE 5 7 30.36 1028 10 16.0934 N/A
9:37 pm 21:37 Partly Cloudy 45 7 39 4 81 81 E 5 7 30.36 1028 10 16.0934 N/A
9:57 pm 21:57 Clear 45 7 39 4 81 81 E 5 7 30.36 1028 10 16.0934 N/A
10:16 pm 22:16 Partly Cloudy 43 6 39 4 87 87 ENE 5 7 30.36 1028 10 16.0934 N/A
10:37 pm 22:37 Mostly Cloudy 45 7 39 4 81 81 E 6 9 30.36 1028 10 16.0934 N/A
10:57 pm 22:57 Mostly Cloudy 46 8 39 4 76 76 E 7 11 30.36 1028 10 16.0934 N/A
11:16 pm 23:16 Mostly Cloudy 45 7 37 3 76 76 ENE 7 11 30.36 1028 10 16.0934 N/A
11:37 pm 23:37 Mostly Cloudy 45 7 37 3 76 76 ENE 5 7 30.36 1028 10 16.0934 N/A
11:57 pm 23:57 Mostly Cloudy 43 6 37 3 81 81 E 3 6 30.36 1028 10 16.0934 N/A

Powered by AerisWeather